Wetterdaten: Samstag, 17.02.2007
Datum Zeit Temp. A. Feuchte A. Luftdruck Regen Wind Richtung Richtung Sonnenschein UV Solar Windben
17.02.2007 00:00 5,8 C 71 % 1018,1 hPa 0,0 mm 4,8 km/h (1 Bft) SO 135 0 min 0 UV-I 0 W/m 19,3 km/h (3 Bft)
17.02.2007 00:15 5,8 C 71 % 1018,2 hPa 0,0 mm 4,5 km/h (1 Bft) S-SO 168 0 min 0 UV-I 0 W/m 14,5 km/h (3 Bft)
17.02.2007 00:20 5,8 C 71 % 1018,1 hPa 0,0 mm 4,9 km/h (1 Bft) O-SO 119 0 min 0 UV-I 0 W/m 14,5 km/h (3 Bft)
17.02.2007 00:25 5,8 C 71 % 1018,2 hPa 0,0 mm 5,8 km/h (2 Bft) S-SW 197 0 min 0 UV-I 0 W/m 22,5 km/h (4 Bft)
17.02.2007 00:30 5,8 C 71 % 1018,3 hPa 0,0 mm 4,8 km/h (1 Bft) S-SW 194 0 min 0 UV-I 0 W/m 11,3 km/h (2 Bft)
17.02.2007 00:35 5,7 C 71 % 1018,4 hPa 0,0 mm 5,1 km/h (1 Bft) S 181 0 min 0 UV-I 0 W/m 24,1 km/h (4 Bft)
17.02.2007 00:40 5,7 C 71 % 1018,5 hPa 0,0 mm 3,2 km/h (1 Bft) SO 135 0 min 0 UV-I 0 W/m 16,1 km/h (3 Bft)
17.02.2007 00:50 5,6 C 72 % 1018,6 hPa 0,0 mm 1,6 km/h (1 Bft) S-SO 157 0 min 0 UV-I 0 W/m 11,3 km/h (2 Bft)
17.02.2007 01:00 5,3 C 73 % 1018,6 hPa 0,0 mm 1,6 km/h (1 Bft) O-SO 112 0 min 0 UV-I 0 W/m 8,0 km/h (2 Bft)
17.02.2007 01:10 5,3 C 72 % 1018,5 hPa 0,0 mm 3,2 km/h (1 Bft) SO 135 0 min 0 UV-I 0 W/m 12,9 km/h (3 Bft)
17.02.2007 01:20 5,2 C 73 % 1018,5 hPa 0,0 mm 3,2 km/h (1 Bft) SO 135 0 min 0 UV-I 0 W/m 11,3 km/h (2 Bft)
17.02.2007 01:30 5,2 C 73 % 1018,4 hPa 0,0 mm 3,2 km/h (1 Bft) SO 135 0 min 0 UV-I 0 W/m 11,3 km/h (2 Bft)
17.02.2007 01:40 5,1 C 73 % 1018,4 hPa 0,0 mm 3,2 km/h (1 Bft) SO 135 0 min 0 UV-I 0 W/m 11,3 km/h (2 Bft)
17.02.2007 01:50 5,1 C 73 % 1018,3 hPa 0,0 mm 3,2 km/h (1 Bft) SO 135 0 min 0 UV-I 0 W/m 9,7 km/h (2 Bft)
17.02.2007 02:00 5,0 C 73 % 1018,2 hPa 0,0 mm 3,2 km/h (1 Bft) SO 135 0 min 0 UV-I 0 W/m 8,0 km/h (2 Bft)
17.02.2007 02:10 4,9 C 73 % 1018,3 hPa 0,0 mm 1,6 km/h (1 Bft) SO 135 0 min 0 UV-I 0 W/m 6,4 km/h (2 Bft)
17.02.2007 02:20 4,9 C 73 % 1018,2 hPa 0,0 mm 1,6 km/h (1 Bft) O-SO 112 0 min 0 UV-I 0 W/m 11,3 km/h (2 Bft)
17.02.2007 02:30 4,9 C 73 % 1018,1 hPa 0,0 mm 1,6 km/h (1 Bft) S-SO 157 0 min 0 UV-I 0 W/m 9,7 km/h (2 Bft)
17.02.2007 02:40 4,9 C 73 % 1018,0 hPa 0,0 mm 4,8 km/h (1 Bft) SO 135 0 min 0 UV-I 0 W/m 9,7 km/h (2 Bft)
17.02.2007 02:50 4,9 C 73 % 1017,9 hPa 0,0 mm 4,8 km/h (1 Bft) SO 135 0 min 0 UV-I 0 W/m 14,5 km/h (3 Bft)
17.02.2007 03:00 4,8 C 73 % 1017,8 hPa 0,0 mm 3,2 km/h (1 Bft) SO 135 0 min 0 UV-I 0 W/m 9,7 km/h (2 Bft)
17.02.2007 03:10 4,8 C 73 % 1017,6 hPa 0,0 mm 4,8 km/h (1 Bft) SO 135 0 min 0 UV-I 0 W/m 17,7 km/h (3 Bft)
17.02.2007 03:20 4,8 C 73 % 1017,5 hPa 0,0 mm 4,8 km/h (1 Bft) SO 135 0 min 0 UV-I 0 W/m 16,1 km/h (3 Bft)
17.02.2007 03:30 4,8 C 73 % 1017,6 hPa 0,0 mm 3,2 km/h (1 Bft) SO 135 0 min 0 UV-I 0 W/m 16,1 km/h (3 Bft)
17.02.2007 03:40 4,8 C 72 % 1017,4 hPa 0,0 mm 4,8 km/h (1 Bft) SO 135 0 min 0 UV-I 0 W/m 11,3 km/h (2 Bft)
17.02.2007 03:50 4,8 C 73 % 1017,4 hPa 0,0 mm 3,2 km/h (1 Bft) SO 135 0 min 0 UV-I 0 W/m 11,3 km/h (2 Bft)
17.02.2007 04:00 4,7 C 73 % 1017,3 hPa 0,0 mm 3,2 km/h (1 Bft) SO 135 0 min 0 UV-I 0 W/m 16,1 km/h (3 Bft)
17.02.2007 04:10 4,7 C 73 % 1017,2 hPa 0,0 mm 3,2 km/h (1 Bft) SO 135 0 min 0 UV-I 0 W/m 8,0 km/h (2 Bft)
17.02.2007 04:20 4,7 C 73 % 1017,2 hPa 0,0 mm 3,2 km/h (1 Bft) SO 135 0 min 0 UV-I 0 W/m 17,7 km/h (3 Bft)
17.02.2007 04:30 4,6 C 73 % 1017,3 hPa 0,0 mm 3,2 km/h (1 Bft) SO 135 0 min 0 UV-I 0 W/m 9,7 km/h (2 Bft)
17.02.2007 04:40 4,5 C 73 % 1017,3 hPa 0,0 mm 1,6 km/h (1 Bft) O-SO 112 0 min 0 UV-I 0 W/m 9,7 km/h (2 Bft)
17.02.2007 04:50 4,4 C 73 % 1017,5 hPa 0,0 mm 3,2 km/h (1 Bft) O-SO 112 0 min 0 UV-I 0 W/m 11,3 km/h (2 Bft)
17.02.2007 05:00 4,4 C 73 % 1017,4 hPa 0,0 mm 3,2 km/h (1 Bft) SO 135 0 min 0 UV-I 0 W/m 14,5 km/h (3 Bft)
17.02.2007 05:10 4,4 C 76 % 1017,1 hPa 0,0 mm 4,8 km/h (1 Bft) SO 135 0 min 0 UV-I 0 W/m 17,7 km/h (3 Bft)
17.02.2007 05:20 4,5 C 72 % 1017,0 hPa 0,0 mm 3,2 km/h (1 Bft) O-SO 112 0 min 0 UV-I 0 W/m 17,7 km/h (3 Bft)
17.02.2007 05:30 4,4 C 73 % 1016,9 hPa 0,0 mm 3,2 km/h (1 Bft) SO 135 0 min 0 UV-I 0 W/m 8,0 km/h (2 Bft)
17.02.2007 05:40 4,3 C 72 % 1016,8 hPa 0,0 mm 3,2 km/h (1 Bft) O-SO 112 0 min 0 UV-I 0 W/m 16,1 km/h (3 Bft)
17.02.2007 05:50 4,3 C 73 % 1016,8 hPa 0,0 mm 3,2 km/h (1 Bft) SO 135 0 min 0 UV-I 0 W/m 11,3 km/h (2 Bft)
17.02.2007 06:00 4,2 C 73 % 1016,7 hPa 0,0 mm 3,2 km/h (1 Bft) O-SO 112 0 min 0 UV-I 0 W/m 11,3 km/h (2 Bft)
17.02.2007 06:10 4,1 C 73 % 1016,6 hPa 0,0 mm 3,2 km/h (1 Bft) SO 135 0 min 0 UV-I 0 W/m 11,3 km/h (2 Bft)
17.02.2007 06:20 4,0 C 73 % 1016,4 hPa 0,0 mm 3,2 km/h (1 Bft) SO 135 0 min 0 UV-I 0 W/m 11,3 km/h (2 Bft)
17.02.2007 06:30 4,1 C 72 % 1016,4 hPa 0,0 mm 3,2 km/h (1 Bft) O-SO 112 0 min 0 UV-I 0 W/m 16,1 km/h (3 Bft)
17.02.2007 06:40 4,1 C 72 % 1016,3 hPa 0,0 mm 3,2 km/h (1 Bft) SO 135 0 min 0 UV-I 0 W/m 14,5 km/h (3 Bft)
17.02.2007 06:50 4,1 C 72 % 1016,2 hPa 0,0 mm 3,2 km/h (1 Bft) SO 135 0 min 0 UV-I 0 W/m 19,3 km/h (3 Bft)
17.02.2007 07:00 4,1 C 71 % 1016,0 hPa 0,0 mm 4,8 km/h (1 Bft) SO 135 0 min 0 UV-I 0 W/m 17,7 km/h (3 Bft)
17.02.2007 07:10 4,2 C 71 % 1016,0 hPa 0,0 mm 4,8 km/h (1 Bft) SO 135 0 min 0 UV-I 0 W/m 19,3 km/h (3 Bft)
17.02.2007 07:20 4,2 C 71 % 1016,0 hPa 0,0 mm 4,8 km/h (1 Bft) SO 135 0 min 0 UV-I 0 W/m 16,1 km/h (3 Bft)
17.02.2007 07:30 4,1 C 71 % 1016,0 hPa 0,0 mm 4,8 km/h (1 Bft) SO 135 0 min 0 UV-I 0 W/m 19,3 km/h (3 Bft)
17.02.2007 07:40 4,1 C 71 % 1016,0 hPa 0,0 mm 4,8 km/h (1 Bft) SO 135 0 min 0 UV-I 0 W/m 16,1 km/h (3 Bft)
17.02.2007 07:50 4,1 C 71 % 1016,0 hPa 0,0 mm 4,8 km/h (1 Bft) O-SO 112 0 min 0 UV-I 9 W/m 17,7 km/h (3 Bft)
17.02.2007 08:00 4,1 C 71 % 1016,1 hPa 0,0 mm 4,8 km/h (1 Bft) SO 135 0 min 0 UV-I 19 W/m 14,5 km/h (3 Bft)
17.02.2007 08:10 4,1 C 71 % 1016,2 hPa 0,0 mm 4,8 km/h (1 Bft) SO 135 0 min 0 UV-I 33 W/m 16,1 km/h (3 Bft)
17.02.2007 08:20 4,1 C 71 % 1016,2 hPa 0,0 mm 4,8 km/h (1 Bft) O-SO 112 0 min 0 UV-I 47 W/m 20,9 km/h (4 Bft)
17.02.2007 08:30 4,2 C 70 % 1016,3 hPa 0,0 mm 4,8 km/h (1 Bft) SO 135 0 min 0 UV-I 62 W/m 16,1 km/h (3 Bft)
17.02.2007 08:40 4,3 C 70 % 1016,3 hPa 0,0 mm 3,2 km/h (1 Bft) SO 135 0 min 0 UV-I 76 W/m 14,5 km/h (3 Bft)
17.02.2007 08:50 4,3 C 71 % 1016,2 hPa 0,0 mm 4,8 km/h (1 Bft) SO 135 0 min 0 UV-I 88 W/m 14,5 km/h (3 Bft)
17.02.2007 09:00 4,4 C 70 % 1016,0 hPa 0,0 mm 4,8 km/h (1 Bft) SO 135 10 min 0 UV-I 111 W/m 14,5 km/h (3 Bft)
17.02.2007 09:10 4,6 C 70 % 1015,9 hPa 0,0 mm 4,8 km/h (1 Bft) SO 135 10 min 0 UV-I 132 W/m 12,9 km/h (3 Bft)
17.02.2007 09:20 4,7 C 69 % 1015,9 hPa 0,0 mm 4,8 km/h (1 Bft) O-SO 112 10 min 0 UV-I 174 W/m 14,5 km/h (3 Bft)
17.02.2007 09:30 4,9 C 69 % 1015,8 hPa 0,0 mm 4,8 km/h (1 Bft) SO 135 10 min 0 UV-I 200 W/m 16,1 km/h (3 Bft)
17.02.2007 09:45 5,3 C 68 % 1016,0 hPa 0,0 mm 4,1 km/h (1 Bft) O-SO 104 15 min 0 UV-I 197 W/m 16,1 km/h (3 Bft)
17.02.2007 09:50 5,4 C 67 % 1015,8 hPa 0,0 mm 3,9 km/h (1 Bft) S-SO 155 5 min 0 UV-I 186 W/m 8,0 km/h (2 Bft)
17.02.2007 09:55 5,7 C 66 % 1016,1 hPa 0,0 mm 2,9 km/h (1 Bft) O-SO 109 5 min 0 UV-I 206 W/m 4,8 km/h (1 Bft)
17.02.2007 10:00 5,9 C 65 % 1016,0 hPa 0,0 mm 4,9 km/h (1 Bft) SW 230 5 min 0 UV-I 210 W/m 9,7 km/h (2 Bft)
17.02.2007 10:05 6,2 C 64 % 1016,0 hPa 0,0 mm 4,7 km/h (1 Bft) O-SO 113 5 min 0 UV-I 212 W/m 20,9 km/h (4 Bft)
17.02.2007 10:10 6,2 C 63 % 1015,9 hPa 0,0 mm 5,8 km/h (2 Bft) SO 133 5 min 1 UV-I 199 W/m 17,7 km/h (3 Bft)
17.02.2007 10:15 6,3 C 63 % 1016,0 hPa 0,0 mm 5,4 km/h (1 Bft) O-SO 108 5 min 1 UV-I 218 W/m 16,1 km/h (3 Bft)
17.02.2007 10:20 6,4 C 62 % 1016,1 hPa 0,0 mm 4,6 km/h (1 Bft) SO 132 5 min 1 UV-I 237 W/m 14,5 km/h (3 Bft)
17.02.2007 10:25 6,7 C 61 % 1016,2 hPa 0,1 mm 4,9 km/h (1 Bft) S-SW 200 5 min 1 UV-I 264 W/m 16,1 km/h (3 Bft)
17.02.2007 10:30 6,8 C 62 % 1015,9 hPa 0,0 mm 4,0 km/h (1 Bft) O-SO 117 5 min 1 UV-I 255 W/m 16,1 km/h (3 Bft)
17.02.2007 10:35 6,8 C 61 % 1015,8 hPa 0,0 mm 3,5 km/h (1 Bft) S-SO 165 5 min 1 UV-I 259 W/m 9,7 km/h (2 Bft)
17.02.2007 10:40 7,0 C 60 % 1015,5 hPa 0,0 mm 4,8 km/h (1 Bft) O-SO 112 5 min 1 UV-I 338 W/m 19,3 km/h (3 Bft)
17.02.2007 10:50 7,3 C 59 % 1015,6 hPa 0,0 mm 4,8 km/h (1 Bft) O 90 10 min 1 UV-I 350 W/m 14,5 km/h (3 Bft)
17.02.2007 11:00 7,7 C 58 % 1015,7 hPa 0,0 mm 6,4 km/h (2 Bft) O 90 10 min 1 UV-I 362 W/m 24,1 km/h (4 Bft)
17.02.2007 11:10 7,8 C 58 % 1016,0 hPa 0,0 mm 3,2 km/h (1 Bft) SO 135 10 min 1 UV-I 357 W/m 16,1 km/h (3 Bft)
17.02.2007 11:20 7,8 C 58 % 1016,0 hPa 0,0 mm 4,2 km/h (1 Bft) SO 134 10 min 1 UV-I 310 W/m 11,3 km/h (2 Bft)
17.02.2007 11:25 7,9 C 58 % 1016,3 hPa 0,0 mm 4,2 km/h (1 Bft) W-SW 238 5 min 1 UV-I 346 W/m 11,3 km/h (2 Bft)
17.02.2007 11:30 8,2 C 57 % 1016,1 hPa 0,0 mm 4,0 km/h (1 Bft) O-SO 109 5 min 1 UV-I 378 W/m 16,1 km/h (3 Bft)
17.02.2007 11:40 8,5 C 56 % 1016,3 hPa 0,0 mm 4,8 km/h (1 Bft) S-SO 157 10 min 1 UV-I 448 W/m 19,3 km/h (3 Bft)
17.02.2007 11:50 8,6 C 57 % 1016,1 hPa 0,0 mm 4,8 km/h (1 Bft) S-SO 157 10 min 1 UV-I 454 W/m 16,1 km/h (3 Bft)
17.02.2007 12:00 8,7 C 57 % 1016,1 hPa 0,0 mm 4,8 km/h (1 Bft) S-SO 157 10 min 1 UV-I 374 W/m 14,5 km/h (3 Bft)
17.02.2007 12:15 8,8 C 56 % 1015,8 hPa 0,0 mm 5,2 km/h (1 Bft) O 92 15 min 1 UV-I 353 W/m 14,5 km/h (3 Bft)
17.02.2007 12:20 9,1 C 56 % 1015,9 hPa 0,0 mm 3,8 km/h (1 Bft) W-NW 298 5 min 1 UV-I 335 W/m 9,7 km/h (2 Bft)
17.02.2007 12:25 9,1 C 56 % 1015,6 hPa 0,0 mm 6,9 km/h (2 Bft) SO 125 5 min 1 UV-I 335 W/m 17,7 km/h (3 Bft)
17.02.2007 12:30 9,3 C 55 % 1015,5 hPa 0,0 mm 4,5 km/h (1 Bft) O 80 5 min 1 UV-I 343 W/m 9,7 km/h (2 Bft)
17.02.2007 12:35 9,5 C 54 % 1015,6 hPa 0,0 mm 6,1 km/h (2 Bft) S-SO 157 5 min 1 UV-I 343 W/m 17,7 km/h (3 Bft)
17.02.2007 12:40 9,7 C 53 % 1015,5 hPa 0,0 mm 5,2 km/h (1 Bft) SW 223 5 min 1 UV-I 388 W/m 16,1 km/h (3 Bft)
17.02.2007 12:45 10,0 C 53 % 1015,4 hPa 0,0 mm 3,7 km/h (1 Bft) S-SO 163 5 min 1 UV-I 399 W/m 11,3 km/h (2 Bft)
17.02.2007 12:50 10,1 C 53 % 1015,4 hPa 0,0 mm 3,7 km/h (1 Bft) O-SO 105 5 min 1 UV-I 376 W/m 11,3 km/h (2 Bft)
17.02.2007 12:55 10,2 C 53 % 1015,4 hPa 0,0 mm 4,8 km/h (1 Bft) O 90 5 min 1 UV-I 407 W/m 14,5 km/h (3 Bft)
17.02.2007 13:00 10,5 C 51 % 1015,3 hPa 0,0 mm 3,2 km/h (1 Bft) O-SO 112 5 min 1 UV-I 334 W/m 11,3 km/h (2 Bft)
17.02.2007 13:10 10,4 C 52 % 1015,2 hPa 0,0 mm 4,8 km/h (1 Bft) O-SO 112 10 min 1 UV-I 308 W/m 19,3 km/h (3 Bft)
17.02.2007 13:20 10,6 C 51 % 1015,0 hPa 0,0 mm 4,8 km/h (1 Bft) O 90 10 min 1 UV-I 385 W/m 16,1 km/h (3 Bft)
17.02.2007 13:30 10,7 C 50 % 1015,0 hPa 0,0 mm 4,8 km/h (1 Bft) O-SO 112 10 min 1 UV-I 334 W/m 20,9 km/h (4 Bft)
17.02.2007 13:40 10,7 C 50 % 1015,1 hPa 0,0 mm 6,4 km/h (2 Bft) O-SO 112 10 min 1 UV-I 311 W/m 17,7 km/h (3 Bft)
17.02.2007 13:50 10,8 C 50 % 1014,9 hPa 0,0 mm 6,4 km/h (2 Bft) O 90 10 min 1 UV-I 287 W/m 17,7 km/h (3 Bft)
17.02.2007 14:00 10,8 C 50 % 1014,8 hPa 0,0 mm 4,8 km/h (1 Bft) O 90 10 min 1 UV-I 230 W/m 22,5 km/h (4 Bft)
17.02.2007 14:10 10,7 C 50 % 1014,9 hPa 0,0 mm 4,8 km/h (1 Bft) SO 135 10 min 1 UV-I 278 W/m 14,5 km/h (3 Bft)
17.02.2007 14:20 10,8 C 50 % 1014,8 hPa 0,0 mm 4,8 km/h (1 Bft) O 90 10 min 1 UV-I 285 W/m 17,7 km/h (3 Bft)
17.02.2007 14:30 10,7 C 51 % 1014,5 hPa 0,0 mm 8,0 km/h (2 Bft) O 90 10 min 1 UV-I 283 W/m 22,5 km/h (4 Bft)
17.02.2007 14:40 10,7 C 51 % 1014,6 hPa 0,0 mm 4,8 km/h (1 Bft) O 90 10 min 1 UV-I 251 W/m 14,5 km/h (3 Bft)
17.02.2007 14:50 10,7 C 51 % 1014,6 hPa 0,0 mm 4,8 km/h (1 Bft) SO 135 10 min 1 UV-I 309 W/m 20,9 km/h (4 Bft)
17.02.2007 15:00 10,9 C 51 % 1014,5 hPa 0,0 mm 4,8 km/h (1 Bft) O 90 10 min 1 UV-I 308 W/m 20,9 km/h (4 Bft)
17.02.2007 15:10 11,0 C 51 % 1014,2 hPa 0,0 mm 4,8 km/h (1 Bft) SO 135 10 min 1 UV-I 265 W/m 9,7 km/h (2 Bft)
17.02.2007 15:20 11,0 C 50 % 1014,3 hPa 0,0 mm 3,2 km/h (1 Bft) O-SO 112 10 min 1 UV-I 227 W/m 14,5 km/h (3 Bft)
17.02.2007 15:30 11,1 C 50 % 1014,2 hPa 0,0 mm 4,8 km/h (1 Bft) O 90 10 min 1 UV-I 195 W/m 17,7 km/h (3 Bft)
17.02.2007 15:40 11,1 C 49 % 1013,9 hPa 0,0 mm 4,8 km/h (1 Bft) O-SO 112 10 min 0 UV-I 216 W/m 16,1 km/h (3 Bft)
17.02.2007 15:50 11,2 C 50 % 1014,1 hPa 0,0 mm 3,2 km/h (1 Bft) S-SO 157 10 min 0 UV-I 213 W/m 16,1 km/h (3 Bft)
17.02.2007 16:00 11,2 C 50 % 1014,0 hPa 0,0 mm 3,2 km/h (1 Bft) SO 135 10 min 0 UV-I 202 W/m 11,3 km/h (2 Bft)
17.02.2007 16:10 11,2 C 51 % 1014,0 hPa 0,0 mm 3,2 km/h (1 Bft) S-SO 157 10 min 0 UV-I 162 W/m 9,7 km/h (2 Bft)
17.02.2007 16:20 11,0 C 51 % 1014,1 hPa 0,0 mm 1,6 km/h (1 Bft) S 180 10 min 0 UV-I 120 W/m 8,0 km/h (2 Bft)
17.02.2007 16:30 10,8 C 53 % 1014,2 hPa 0,0 mm 1,6 km/h (1 Bft) S-SO 157 10 min 0 UV-I 93 W/m 6,4 km/h (2 Bft)
17.02.2007 16:40 10,6 C 54 % 1014,5 hPa 0,0 mm 1,6 km/h (1 Bft) SO 135 0 min 0 UV-I 72 W/m 6,4 km/h (2 Bft)
17.02.2007 16:50 10,3 C 54 % 1014,6 hPa 0,0 mm 1,6 km/h (1 Bft) S-SO 157 0 min 0 UV-I 60 W/m 8,0 km/h (2 Bft)
17.02.2007 17:00 10,1 C 55 % 1014,5 hPa 0,0 mm 1,6 km/h (1 Bft) SO 135 0 min 0 UV-I 46 W/m 9,7 km/h (2 Bft)
17.02.2007 17:10 9,9 C 55 % 1014,4 hPa 0,0 mm 1,6 km/h (1 Bft) S-SO 157 0 min 0 UV-I 33 W/m 6,4 km/h (2 Bft)
17.02.2007 17:20 9,7 C 56 % 1014,5 hPa 0,0 mm 1,6 km/h (1 Bft) SO 135 10 min 0 UV-I 25 W/m 11,3 km/h (2 Bft)
17.02.2007 17:30 9,4 C 57 % 1014,5 hPa 0,0 mm 1,6 km/h (1 Bft) SO 135 10 min 0 UV-I 16 W/m 6,4 km/h (2 Bft)
17.02.2007 17:40 9,2 C 57 % 1014,4 hPa 0,0 mm 1,6 km/h (1 Bft) SO 135 0 min 0 UV-I 0 W/m 4,8 km/h (1 Bft)
17.02.2007 17:50 9,2 C 57 % 1014,3 hPa 0,0 mm 1,6 km/h (1 Bft) O-SO 112 0 min 0 UV-I 0 W/m 9,7 km/h (2 Bft)
17.02.2007 18:00 9,2 C 57 % 1014,3 hPa 0,0 mm 3,2 km/h (1 Bft) O-SO 112 0 min 0 UV-I 0 W/m 11,3 km/h (2 Bft)
17.02.2007 18:10 9,2 C 57 % 1014,4 hPa 0,0 mm 1,6 km/h (1 Bft) O-SO 112 0 min 0 UV-I 0 W/m 8,0 km/h (2 Bft)
17.02.2007 18:20 9,1 C 58 % 1014,3 hPa 0,0 mm 1,6 km/h (1 Bft) O-SO 112 0 min 0 UV-I 0 W/m 6,4 km/h (2 Bft)
17.02.2007 18:30 8,9 C 58 % 1014,4 hPa 0,0 mm 1,6 km/h (1 Bft) S 180 0 min 0 UV-I 0 W/m 8,0 km/h (2 Bft)
17.02.2007 18:40 8,8 C 59 % 1014,5 hPa 0,0 mm 1,6 km/h (1 Bft) O 90 0 min 0 UV-I 0 W/m 6,4 km/h (2 Bft)
17.02.2007 18:50 8,7 C 59 % 1014,3 hPa 0,0 mm 1,6 km/h (1 Bft) SO 135 0 min 0 UV-I 0 W/m 8,0 km/h (2 Bft)
17.02.2007 19:00 8,7 C 59 % 1014,2 hPa 0,0 mm 1,6 km/h (1 Bft) SO 135 0 min 0 UV-I 0 W/m 6,4 km/h (2 Bft)
17.02.2007 19:10 8,6 C 59 % 1014,1 hPa 0,0 mm 1,6 km/h (1 Bft) SO 135 0 min 0 UV-I 0 W/m 6,4 km/h (2 Bft)
17.02.2007 19:20 8,5 C 59 % 1014,3 hPa 0,0 mm 0,0 km/h (0 Bft) W 270 0 min 0 UV-I 0 W/m 6,4 km/h (2 Bft)
17.02.2007 19:30 8,2 C 61 % 1014,3 hPa 0,0 mm 0,0 km/h (0 Bft) S-SO 157 0 min 0 UV-I 0 W/m 6,4 km/h (2 Bft)
17.02.2007 19:40 8,0 C 61 % 1014,5 hPa 0,0 mm 0,0 km/h (0 Bft) O 90 0 min 0 UV-I 0 W/m 3,2 km/h (1 Bft)
17.02.2007 19:50 7,8 C 63 % 1014,5 hPa 0,0 mm 0,0 km/h (0 Bft) O 90 0 min 0 UV-I 0 W/m 3,2 km/h (1 Bft)
17.02.2007 20:00 7,5 C 64 % 1014,4 hPa 0,0 mm 0,0 km/h (0 Bft) O-SO 112 0 min 0 UV-I 0 W/m 3,2 km/h (1 Bft)
17.02.2007 20:10 7,4 C 64 % 1014,5 hPa 0,0 mm 0,0 km/h (0 Bft) O-SO 112 0 min 0 UV-I 0 W/m 1,6 km/h (1 Bft)
17.02.2007 20:20 7,4 C 64 % 1014,4 hPa 0,0 mm 0,0 km/h (0 Bft) O 90 0 min 0 UV-I 0 W/m 4,8 km/h (1 Bft)
17.02.2007 20:30 7,3 C 65 % 1014,4 hPa 0,0 mm 0,0 km/h (0 Bft) O 90 0 min 0 UV-I 0 W/m 3,2 km/h (1 Bft)
17.02.2007 20:40 7,2 C 66 % 1014,4 hPa 0,0 mm 0,0 km/h (0 Bft) SO 135 0 min 0 UV-I 0 W/m 3,2 km/h (1 Bft)
17.02.2007 20:50 6,9 C 66 % 1014,4 hPa 0,0 mm 0,0 km/h (0 Bft) O-SO 112 0 min 0 UV-I 0 W/m 3,2 km/h (1 Bft)
17.02.2007 21:00 6,9 C 66 % 1014,5 hPa 0,0 mm 0,0 km/h (0 Bft) O 90 0 min 0 UV-I 0 W/m 4,8 km/h (1 Bft)
17.02.2007 21:10 6,9 C 66 % 1014,5 hPa 0,0 mm 0,0 km/h (0 Bft) O-NO 67 0 min 0 UV-I 0 W/m 3,2 km/h (1 Bft)
17.02.2007 21:20 6,8 C 66 % 1014,6 hPa 0,0 mm 0,0 km/h (0 Bft) O-NO 67 0 min 0 UV-I 0 W/m 1,6 km/h (1 Bft)
17.02.2007 21:30 6,7 C 67 % 1014,6 hPa 0,0 mm 0,0 km/h (0 Bft) O-NO 67 0 min 0 UV-I 0 W/m 1,6 km/h (1 Bft)
17.02.2007 21:40 6,4 C 68 % 1014,6 hPa 0,0 mm 0,0 km/h (0 Bft) N 0 0 min 0 UV-I 0 W/m 0,0 km/h (0 Bft)
17.02.2007 21:50 6,2 C 69 % 1014,7 hPa 0,0 mm 0,0 km/h (0 Bft) O-NO 67 0 min 0 UV-I 0 W/m 1,6 km/h (1 Bft)
17.02.2007 22:00 6,2 C 69 % 1014,7 hPa 0,0 mm 0,0 km/h (0 Bft) O-NO 67 0 min 0 UV-I 0 W/m 1,6 km/h (1 Bft)
17.02.2007 22:10 6,2 C 69 % 1014,7 hPa 0,0 mm 0,0 km/h (0 Bft) N 0 0 min 0 UV-I 0 W/m 0,0 km/h (0 Bft)
17.02.2007 22:20 6,1 C 70 % 1014,7 hPa 0,0 mm 0,0 km/h (0 Bft) N 0 0 min 0 UV-I 0 W/m 0,0 km/h (0 Bft)
17.02.2007 22:30 5,9 C 70 % 1014,7 hPa 0,0 mm 0,0 km/h (0 Bft) O-NO 67 0 min 0 UV-I 0 W/m 1,6 km/h (1 Bft)
17.02.2007 22:40 5,7 C 72 % 1014,6 hPa 0,0 mm 0,0 km/h (0 Bft) N 0 0 min 0 UV-I 0 W/m 0,0 km/h (0 Bft)
17.02.2007 22:50 5,6 C 72 % 1014,6 hPa 0,0 mm 0,0 km/h (0 Bft) N 0 0 min 0 UV-I 0 W/m 0,0 km/h (0 Bft)
17.02.2007 23:00 5,6 C 71 % 1014,5 hPa 0,0 mm 0,0 km/h (0 Bft) N 0 0 min 0 UV-I 0 W/m 0,0 km/h (0 Bft)
17.02.2007 23:15 5,6 C 71 % 1014,6 hPa 0,0 mm 0,0 km/h (0 Bft) O-NO 73 0 min 0 UV-I 0 W/m 0,0 km/h (0 Bft)
17.02.2007 23:20 5,5 C 72 % 1014,5 hPa 0,0 mm 0,0 km/h (0 Bft) O-NO 72 0 min 0 UV-I 0 W/m 1,6 km/h (1 Bft)
17.02.2007 23:25 5,6 C 71 % 1014,4 hPa 0,0 mm 0,1 km/h (0 Bft) O 101 0 min 0 UV-I 0 W/m 1,6 km/h (1 Bft)
17.02.2007 23:30 5,7 C 71 % 1014,6 hPa 0,0 mm 0,0 km/h (0 Bft) N 0 0 min 0 UV-I 0 W/m 0,0 km/h (0 Bft)
17.02.2007 23:50 4,9 C 74 % 1014,6 hPa 0,0 mm 0,0 km/h (0 Bft) O 101 0 min 0 UV-I 0 W/m 0,0 km/h (0 Bft)
17.02.2007 23:55 4,9 C 74 % 1014,6 hPa 0,0 mm 0,0 km/h (0 Bft) O 101 0 min 0 UV-I 0 W/m 0,0 km/h (0 Bft)
_ Min-Zeit 06:20 15:40 15:40 - 19:20 - - - - - 21:40
Minimum _ 4,0 C 49 % 1013,9 hPa - 0,0 km/h (0 Bft) - - - - - 0,0 km/h (0 Bft)
_ Max-Zeit 16:00 05:10 00:50 10:25 14:30 - - 09:45 10:10 11:50 00:35
Maximum _ 11,3 C 76 % 1018,6 hPa 0,1 mm 8,0 km/h
O (2 Bft)
- - 15 min 1 UV-I 454 W/m 24,1 km/h
N (4 Bft)
Durchschnitt _ 7,0 C 64 % 1015,8 hPa #0,1 mm 3,1 km/h (1 Bft) SO - #8:00 h 1 UV-I 235 W/m 11,5 km/h (2 Bft)